Hourly Weather Andros Town

Today, 16 April, Friday

Time Temperature Precipitation Wind Pressure Humidity
00:00 +25°C° 0 mm 3 mps 759 mmHg 69%
01:00 +25°C° 0 mm 3 mps 759 mmHg 71%
02:00 +24°C° 0 mm 3 mps 759 mmHg 73%
03:00 +24°C° 0 mm 3 mps 759 mmHg 74%
04:00 +24°C° 0 mm 3 mps 758 mmHg 75%
05:00 +24°C° 0 mm 3 mps 759 mmHg 72%
06:00 +25°C° 0 mm 3 mps 759 mmHg 70%
07:00 +25°C° 0 mm 2 mps 759 mmHg 68%
08:00 +27°C° 0 mm 2 mps 759 mmHg 59%
09:00 +29°C° 0 mm 3 mps 760 mmHg 49%
10:00 +30°C° 0 mm 3 mps 760 mmHg 39%
11:00 +31°C° 0 mm 3 mps 759 mmHg 36%
12:00 +33°C° 0 mm 4 mps 759 mmHg 33%
13:00 +34°C° 0 mm 4 mps 758 mmHg 31%
14:00 +34°C° 0 mm 4 mps 758 mmHg 33%
15:00 +33°C° 0 mm 4 mps 758 mmHg 36%
16:00 +32°C° 0 mm 4 mps 757 mmHg 39%
17:00 +30°C° 0 mm 4 mps 758 mmHg 44%
18:00 +29°C° 0 mm 4 mps 758 mmHg 50%
19:00 +28°C° 0 mm 4 mps 758 mmHg 55%
20:00 +28°C° 0 mm 4 mps 758 mmHg 56%
21:00 +28°C° 0 mm 4 mps 759 mmHg 57%
22:00 +28°C° 0 mm 4 mps 759 mmHg 58%
23:00 +27°C° 0 mm 4 mps 759 mmHg 60%

Tomorrow, 17 April, Saturday

Time Temperature Precipitation Wind Pressure Humidity
00:00 +27°C° 0 mm 4 mps 759 mmHg 61%
01:00 +26°C° 0 mm 5 mps 759 mmHg 63%
02:00 +26°C° 0 mm 4 mps 759 mmHg 66%
03:00 +26°C° 0 mm 4 mps 759 mmHg 69%
04:00 +26°C° 0 mm 4 mps 758 mmHg 72%
05:00 +26°C° 0 mm 4 mps 759 mmHg 70%
06:00 +26°C° 0 mm 4 mps 759 mmHg 69%
07:00 +27°C° 0 mm 4 mps 759 mmHg 68%
08:00 +29°C° 0 mm 4 mps 760 mmHg 62%
09:00 +30°C° 0 mm 5 mps 760 mmHg 55%
10:00 +33°C° 0 mm 5 mps 760 mmHg 49%
11:00 +33°C° 0 mm 5 mps 760 mmHg 46%
12:00 +34°C° 0 mm 5 mps 759 mmHg 44%
13:00 +35°C° 0 mm 6 mps 759 mmHg 42%
14:00 +35°C° 0 mm 5 mps 759 mmHg 40%
15:00 +35°C° 0 mm 4 mps 758 mmHg 39%
16:00 +34°C° 0 mm 4 mps 758 mmHg 37%
17:00 +33°C° 0 mm 4 mps 758 mmHg 40%
18:00 +31°C° 0 mm 3 mps 759 mmHg 43%
19:00 +30°C° 0 mm 3 mps 759 mmHg 47%
20:00 +30°C° 0 mm 3 mps 759 mmHg 53%
21:00 +29°C° 0 mm 3 mps 760 mmHg 59%
22:00 +28°C° 0 mm 3 mps 760 mmHg 66%
23:00 +28°C° 0 mm 3 mps 760 mmHg 67%

Day after tomorrow, 18 April, Sunday

Time Temperature Precipitation Wind Pressure Humidity
00:00 +28°C° 0 mm 4 mps 760 mmHg 68%
01:00 +28°C° 0 mm 4 mps 759 mmHg 68%
02:00 +27°C° 0 mm 4 mps 759 mmHg 70%
03:00 +27°C° 0 mm 4 mps 759 mmHg 72%
04:00 +27°C° 0 mm 4 mps 759 mmHg 73%
05:00 +27°C° 0 mm 4 mps 760 mmHg 72%
06:00 +27°C° 0 mm 4 mps 760 mmHg 71%
07:00 +28°C° 0 mm 4 mps 761 mmHg 69%
08:00 +29°C° 0 mm 4 mps 761 mmHg 61%
09:00 +32°C° 0 mm 4 mps 761 mmHg 54%
10:00 +34°C° 0 mm 3 mps 761 mmHg 46%
11:00 +34°C° 0 mm 4 mps 761 mmHg 43%
12:00 +35°C° 0 mm 4 mps 760 mmHg 41%
13:00 +36°C° 0 mm 5 mps 760 mmHg 39%
14:00 +35°C° 0 mm 5 mps 759 mmHg 40%
15:00 +35°C° 0 mm 5 mps 759 mmHg 41%
16:00 +35°C° 0 mm 5 mps 759 mmHg 42%
17:00 +34°C° 0 mm 5 mps 759 mmHg 44%
18:00 +33°C° 0 mm 4 mps 759 mmHg 47%
19:00 +32°C° 0 mm 4 mps 759 mmHg 49%
20:00 +32°C° 0 mm 4 mps 760 mmHg 53%
21:00 +30°C° 0 mm 4 mps 760 mmHg 57%
22:00 +30°C° 0 mm 4 mps 760 mmHg 61%
23:00 +29°C° 0 mm 4 mps 760 mmHg 62%

19 April, Monday

Time Temperature Precipitation Wind Pressure Humidity
00:00 +29°C° 0 mm 5 mps 760 mmHg 63%
01:00 +29°C° 0 mm 5 mps 760 mmHg 64%
02:00 +29°C° 0 mm 5 mps 760 mmHg 67%
03:00 +28°C° 0 mm 4 mps 760 mmHg 69%
04:00 +28°C° 0 mm 4 mps 760 mmHg 72%
05:00 +28°C° 0 mm 4 mps 760 mmHg 72%
06:00 +28°C° 0 mm 4 mps 760 mmHg 71%
07:00 +28°C° 0 mm 4 mps 761 mmHg 70%
08:00 +30°C° 0 mm 4 mps 761 mmHg 62%
09:00 +33°C° 0 mm 5 mps 761 mmHg 53%
10:00 +34°C° 0 mm 5 mps 761 mmHg 44%
11:00 +35°C° 0 mm 5 mps 761 mmHg 44%
12:00 +35°C° 0 mm 5 mps 760 mmHg 43%
13:00 +36°C° 0 mm 5 mps 760 mmHg 42%
14:00 +36°C° 0 mm 5 mps 760 mmHg 41%
15:00 +35°C° 0 mm 5 mps 759 mmHg 40%
16:00 +35°C° 0 mm 4 mps 759 mmHg 39%
17:00 +34°C° 0 mm 4 mps 759 mmHg 44%
18:00 +33°C° 0 mm 3 mps 760 mmHg 49%
19:00 +31°C° 0 mm 3 mps 760 mmHg 55%
20:00 +31°C° 0 mm 3 mps 760 mmHg 58%
21:00 +30°C° 0 mm 3 mps 761 mmHg 60%
22:00 +30°C° 0 mm 3 mps 761 mmHg 63%
23:00 +30°C° 0.1 mm 3 mps 761 mmHg 64%

20 April, Tuesday

Time Temperature Precipitation Wind Pressure Humidity
00:00 +29°C° 0.1 mm 3 mps 761 mmHg 64%
01:00 +29°C° 0.1 mm 3 mps 761 mmHg 65%
02:00 +29°C° 0.1 mm 3 mps 761 mmHg 67%
03:00 +28°C° 0.1 mm 3 mps 760 mmHg 70%
04:00 +28°C° 0.1 mm 3 mps 760 mmHg 72%
05:00 +28°C° 0 mm 3 mps 761 mmHg 71%
06:00 +28°C° 0 mm 3 mps 761 mmHg 71%
07:00 +29°C° 0 mm 3 mps 761 mmHg 70%
08:00 +30°C° 0 mm 3 mps 761 mmHg 61%
09:00 +33°C° 0 mm 4 mps 762 mmHg 51%
10:00 +35°C° 0 mm 4 mps 762 mmHg 42%
11:00 +35°C° 0 mm 5 mps 761 mmHg 40%
12:00 +36°C° 0 mm 5 mps 761 mmHg 39%
13:00 +38°C° 0 mm 6 mps 760 mmHg 37%
14:00 +36°C° 0 mm 6 mps 760 mmHg 40%
15:00 +36°C° 0 mm 6 mps 760 mmHg 43%
16:00 +35°C° 0 mm 6 mps 759 mmHg 46%
17:00 +34°C° 0 mm 6 mps 759 mmHg 49%
18:00 +33°C° 0 mm 6 mps 760 mmHg 53%
19:00 +32°C° 0 mm 5 mps 760 mmHg 56%
20:00 +32°C° 0 mm 5 mps 760 mmHg 59%
21:00 +30°C° 0 mm 5 mps 761 mmHg 62%
22:00 +30°C° 0 mm 4 mps 761 mmHg 64%
23:00 +29°C° 0 mm 4 mps 761 mmHg 66%

21 April, Wednesday

Time Temperature Precipitation Wind Pressure Humidity
00:00 +29°C° 0 mm 4 mps 761 mmHg 68%
01:00 +29°C° 0 mm 4 mps 761 mmHg 70%
02:00 +28°C° 0.2 mm 4 mps 761 mmHg 73%
03:00 +28°C° 0.2 mm 3 mps 760 mmHg 75%
04:00 +28°C° 0.2 mm 3 mps 760 mmHg 77%
05:00 +28°C° 0.1 mm 3 mps 761 mmHg 76%
06:00 +28°C° 0.1 mm 3 mps 761 mmHg 75%
07:00 +28°C° 0.1 mm 3 mps 761 mmHg 74%
08:00 +30°C° 0 mm 3 mps 761 mmHg 68%
09:00 +32°C° 0 mm 4 mps 761 mmHg 61%
10:00 +33°C° 0 mm 4 mps 761 mmHg 54%
11:00 +34°C° 0 mm 4 mps 761 mmHg 51%
12:00 +35°C° 0 mm 4 mps 761 mmHg 48%
13:00 +35°C° 0 mm 5 mps 760 mmHg 44%
14:00 +35°C° 0.2 mm 4 mps 760 mmHg 45%
15:00 +34°C° 0.2 mm 4 mps 760 mmHg 47%
16:00 +34°C° 0.2 mm 3 mps 760 mmHg 48%
17:00 +33°C° 0 mm 3 mps 760 mmHg 51%
18:00 +31°C° 0 mm 3 mps 761 mmHg 55%
19:00 +30°C° 0 mm 2 mps 761 mmHg 58%
20:00 +30°C° 0 mm 2 mps 761 mmHg 61%
21:00 +29°C° 0 mm 2 mps 762 mmHg 64%
22:00 +29°C° 0 mm 1 mps 762 mmHg 67%
23:00 +29°C° 0.1 mm 1 mps 762 mmHg 68%
Show more